AAL5166 KDCA-KCLE

Flight info

Callsign AAL5166
Flight time 0h 56m
Altitude 38000
Route HORTO4 JERES J211 JST UPPRR TRYBE4
Aircraft A319/M-SDE3FGHIRWY/LB1

Departure

Time 2026-05-01 10:38
Airport Ronald Reagan Washington National Airport (KDCA)

Arrival

Time 2026-05-01 11:34
Airport Cleveland Hopkins International Airport (KCLE)
Time Latitude Longitude Altitude Speed Heading
2026-05-01 10:01 38.85558 -77.04274 24 ft 0 kts 338°
2026-05-01 10:12 38.85558 -77.04273 24 ft 0 kts 338°
2026-05-01 10:31 38.85554 -77.04272 25 ft 3 kts 338°
2026-05-01 10:31 38.85510 -77.04249 27 ft 4 kts 356°
2026-05-01 10:32 38.85497 -77.04250 24 ft 4 kts 71°
2026-05-01 10:32 38.85506 -77.04217 28 ft 4 kts 71°
2026-05-01 10:32 38.85511 -77.04195 24 ft 0 kts 73°
2026-05-01 10:34 38.85515 -77.04180 26 ft 3 kts 73°
2026-05-01 10:34 38.85526 -77.04134 24 ft 8 kts 73°
2026-05-01 10:35 38.85498 -77.03952 24 ft 18 kts 175°
2026-05-01 10:35 38.85362 -77.03936 24 ft 21 kts 176°
2026-05-01 10:35 38.85214 -77.03922 24 ft 22 kts 175°
2026-05-01 10:35 38.85057 -77.03906 24 ft 23 kts 175°
2026-05-01 10:36 38.84718 -77.03872 25 ft 25 kts 176°
2026-05-01 10:36 38.84537 -77.03854 24 ft 26 kts 176°
2026-05-01 10:36 38.84352 -77.03836 25 ft 27 kts 176°
2026-05-01 10:37 38.84220 -77.03778 24 ft 20 kts 125°
2026-05-01 10:37 38.84362 -77.03696 24 ft 48 kts 356°
2026-05-01 10:37 38.84954 -77.03756 24 ft 120 kts 355°
2026-05-01 10:38 38.85927 -77.03853 298 ft 149 kts 355°
2026-05-01 10:38 38.86980 -77.04076 930 ft 155 kts 339°
2026-05-01 10:38 38.87887 -77.04821 1757 ft 153 kts 321°
2026-05-01 10:38 38.88741 -77.05731 2295 ft 170 kts 322°
2026-05-01 10:39 38.89729 -77.06780 2727 ft 191 kts 322°
2026-05-01 10:39 38.90642 -77.08175 3189 ft 215 kts 304°
2026-05-01 10:39 38.91385 -77.09864 3967 ft 222 kts 303°
2026-05-01 10:39 38.92447 -77.11317 4881 ft 222 kts 325°
2026-05-01 10:40 38.93789 -77.12441 5606 ft 239 kts 327°
2026-05-01 10:40 38.95216 -77.13621 6483 ft 248 kts 321°
2026-05-01 10:40 38.96535 -77.15040 7387 ft 253 kts 319°
2026-05-01 10:40 38.97917 -77.16510 8364 ft 256 kts 319°
2026-05-01 10:41 38.99289 -77.17958 9333 ft 260 kts 319°
2026-05-01 10:41 39.00698 -77.19449 10254 ft 266 kts 319°
2026-05-01 10:41 39.03815 -77.22777 11084 ft 309 kts 318°
2026-05-01 10:42 39.05495 -77.24576 11765 ft 318 kts 317°
2026-05-01 10:42 39.07207 -77.26412 12594 ft 322 kts 317°
2026-05-01 10:42 39.08920 -77.28244 13421 ft 326 kts 316°
2026-05-01 10:42 39.10675 -77.30124 14198 ft 330 kts 316°
2026-05-01 10:43 39.12442 -77.32022 15009 ft 331 kts 316°
2026-05-01 10:43 39.14214 -77.33929 15804 ft 332 kts 315°
2026-05-01 10:43 39.15415 -77.35221 16333 ft 334 kts 315°
2026-05-01 10:43 39.17199 -77.37140 17112 ft 335 kts 315°
2026-05-01 10:44 39.18998 -77.39077 17894 ft 337 kts 314°
2026-05-01 10:44 39.20803 -77.41023 18623 ft 339 kts 314°
2026-05-01 10:44 39.22619 -77.42982 19269 ft 342 kts 314°
2026-05-01 10:44 39.24453 -77.44961 19906 ft 345 kts 313°
2026-05-01 10:45 39.26303 -77.46958 20534 ft 348 kts 313°
2026-05-01 10:45 39.28144 -77.48947 21148 ft 351 kts 313°
2026-05-01 10:45 39.30024 -77.50982 21758 ft 354 kts 313°
2026-05-01 10:45 39.31920 -77.53040 22343 ft 357 kts 313°
2026-05-01 10:46 39.33831 -77.55117 22928 ft 360 kts 313°
2026-05-01 10:46 39.35762 -77.57212 23499 ft 364 kts 313°
2026-05-01 10:46 39.37713 -77.59327 24044 ft 366 kts 312°
2026-05-01 10:46 39.39672 -77.61448 24537 ft 368 kts 312°
2026-05-01 10:47 39.41637 -77.63577 25020 ft 369 kts 312°
2026-05-01 10:47 39.43615 -77.65725 25495 ft 371 kts 312°
2026-05-01 10:47 39.45594 -77.67875 25976 ft 372 kts 312°
2026-05-01 10:47 39.47589 -77.70041 26429 ft 374 kts 312°
2026-05-01 10:48 39.49562 -77.72191 26891 ft 375 kts 311°
2026-05-01 10:48 39.51571 -77.74386 27347 ft 377 kts 311°
2026-05-01 10:48 39.53586 -77.76587 27808 ft 379 kts 311°
2026-05-01 10:48 39.55609 -77.78798 28260 ft 381 kts 311°
2026-05-01 10:49 39.57616 -77.80995 28704 ft 382 kts 311°
2026-05-01 10:49 39.59654 -77.83225 29132 ft 384 kts 311°
2026-05-01 10:49 39.61700 -77.85465 29594 ft 386 kts 311°
2026-05-01 10:49 39.63751 -77.87720 29963 ft 388 kts 311°
2026-05-01 10:50 39.65824 -77.89999 30298 ft 391 kts 311°
2026-05-01 10:50 39.67900 -77.92283 30627 ft 392 kts 311°
2026-05-01 10:50 39.69991 -77.94576 30958 ft 394 kts 311°
2026-05-01 10:50 39.72088 -77.96874 31260 ft 395 kts 311°
2026-05-01 10:51 39.74193 -77.99182 31666 ft 394 kts 311°
2026-05-01 10:51 39.76287 -78.01481 32148 ft 392 kts 311°
2026-05-01 10:51 39.78361 -78.03766 32644 ft 389 kts 311°
2026-05-01 10:51 39.80396 -78.06012 33138 ft 387 kts 310°
2026-05-01 10:52 39.82440 -78.08273 33654 ft 384 kts 310°
2026-05-01 10:52 39.84370 -78.10625 34142 ft 374 kts 303°
2026-05-01 10:52 39.86058 -78.13189 34540 ft 372 kts 303°
2026-05-01 10:52 39.87743 -78.15760 34850 ft 375 kts 303°
2026-05-01 10:53 39.89446 -78.18363 35069 ft 378 kts 303°
2026-05-01 10:53 39.91157 -78.20977 35341 ft 380 kts 303°
2026-05-01 10:53 39.92881 -78.23609 35641 ft 382 kts 303°
2026-05-01 10:53 39.94605 -78.26242 35940 ft 383 kts 303°
2026-05-01 10:54 39.96334 -78.28890 36244 ft 384 kts 303°
2026-05-01 10:54 39.98069 -78.31542 36539 ft 385 kts 304°
2026-05-01 10:54 39.99814 -78.34206 36831 ft 386 kts 304°
2026-05-01 10:54 40.01558 -78.36873 37124 ft 387 kts 304°
2026-05-01 10:55 40.03306 -78.39553 37412 ft 388 kts 304°
2026-05-01 10:55 40.05051 -78.42237 37706 ft 389 kts 304°
2026-05-01 10:55 40.06804 -78.44940 37969 ft 390 kts 304°
2026-05-01 10:56 40.10295 -78.50316 38063 ft 391 kts 304°
2026-05-01 10:56 40.13813 -78.55730 38063 ft 391 kts 304°
2026-05-01 10:57 40.17325 -78.61153 38062 ft 391 kts 304°
2026-05-01 10:57 40.20856 -78.66615 38061 ft 391 kts 304°
2026-05-01 10:58 40.24338 -78.72008 38061 ft 390 kts 304°
2026-05-01 10:58 40.27830 -78.77428 38014 ft 389 kts 304°
2026-05-01 10:59 40.31314 -78.82853 38014 ft 389 kts 304°
2026-05-01 10:59 40.34947 -78.88149 38017 ft 392 kts 307°
2026-05-01 11:00 40.38754 -78.93286 38054 ft 393 kts 307°
2026-05-01 11:00 40.42575 -78.98454 38036 ft 395 kts 307°
2026-05-01 11:01 40.46362 -79.03681 38047 ft 395 kts 307°
2026-05-01 11:01 40.50142 -79.08937 38018 ft 396 kts 307°
2026-05-01 11:02 40.53931 -79.14203 38020 ft 397 kts 307°
2026-05-01 11:02 40.57719 -79.19488 38024 ft 397 kts 307°
2026-05-01 11:03 40.61487 -79.24738 38029 ft 397 kts 307°
2026-05-01 11:03 40.65279 -79.30036 38047 ft 397 kts 307°
2026-05-01 11:04 40.69078 -79.35351 38033 ft 398 kts 307°
2026-05-01 11:04 40.72884 -79.40680 38031 ft 399 kts 307°
2026-05-01 11:05 40.76665 -79.45992 38035 ft 400 kts 307°
2026-05-01 11:05 40.80475 -79.51361 38032 ft 401 kts 307°
2026-05-01 11:06 40.84297 -79.56752 38028 ft 402 kts 307°
2026-05-01 11:06 40.88130 -79.62161 38062 ft 403 kts 307°
2026-05-01 11:07 40.93901 -79.70312 38038 ft 406 kts 307°
2026-05-01 11:07 40.97756 -79.75777 38039 ft 406 kts 307°
2026-05-01 11:08 41.01589 -79.81232 38042 ft 407 kts 307°
2026-05-01 11:09 41.07385 -79.89480 38029 ft 408 kts 307°
2026-05-01 11:09 41.11262 -79.95007 38020 ft 408 kts 307°
2026-05-01 11:10 41.15131 -80.00549 37456 ft 413 kts 307°
2026-05-01 11:10 41.17096 -80.03384 36505 ft 420 kts 307°
2026-05-01 11:10 41.19082 -80.06242 35773 ft 422 kts 307°
2026-05-01 11:10 41.21072 -80.09096 35085 ft 418 kts 307°
2026-05-01 11:11 41.23013 -80.11951 34088 ft 413 kts 303°
2026-05-01 11:11 41.24613 -80.15065 32901 ft 404 kts 295°
2026-05-01 11:11 41.25778 -80.18413 31918 ft 393 kts 287°
2026-05-01 11:11 41.26769 -80.21770 30931 ft 387 kts 288°
2026-05-01 11:12 41.27743 -80.25006 30479 ft 368 kts 288°
2026-05-01 11:12 41.28683 -80.28107 29895 ft 354 kts 287°
2026-05-01 11:12 41.29599 -80.31132 29316 ft 341 kts 287°
2026-05-01 11:12 41.30465 -80.34003 28795 ft 332 kts 287°
2026-05-01 11:13 41.31318 -80.36857 28303 ft 332 kts 287°
2026-05-01 11:13 41.32153 -80.39667 27820 ft 331 kts 287°
2026-05-01 11:13 41.32998 -80.42511 27313 ft 329 kts 287°
2026-05-01 11:13 41.33732 -80.45425 26831 ft 340 kts 281°
2026-05-01 11:14 41.34006 -80.48558 25970 ft 345 kts 271°
2026-05-01 11:14 41.34072 -80.51805 24791 ft 356 kts 270°
2026-05-01 11:14 41.34097 -80.55118 23929 ft 359 kts 270°
2026-05-01 11:14 41.34107 -80.58439 23222 ft 357 kts 269°
2026-05-01 11:15 41.34115 -80.61697 22769 ft 347 kts 269°
2026-05-01 11:15 41.34127 -80.64872 22323 ft 339 kts 270°
2026-05-01 11:15 41.34143 -80.67976 21923 ft 333 kts 270°
2026-05-01 11:15 41.34163 -80.71034 21524 ft 327 kts 270°
2026-05-01 11:16 41.34187 -80.74032 21132 ft 321 kts 270°
2026-05-01 11:16 41.34211 -80.76981 20749 ft 315 kts 270°
2026-05-01 11:16 41.34235 -80.79879 20368 ft 310 kts 270°
2026-05-01 11:16 41.34255 -80.82723 19981 ft 305 kts 270°
2026-05-01 11:17 41.34275 -80.85518 19601 ft 300 kts 270°
2026-05-01 11:17 41.34293 -80.88273 19217 ft 296 kts 270°
2026-05-01 11:17 41.34310 -80.90995 18839 ft 293 kts 270°
2026-05-01 11:17 41.34326 -80.93706 18457 ft 291 kts 270°
2026-05-01 11:18 41.34344 -80.96395 18029 ft 290 kts 270°
2026-05-01 11:18 41.34360 -80.99076 17638 ft 289 kts 270°
2026-05-01 11:18 41.34373 -81.01746 17248 ft 288 kts 270°
2026-05-01 11:18 41.34384 -81.04411 16858 ft 287 kts 269°
2026-05-01 11:19 41.34394 -81.07033 16477 ft 286 kts 270°
2026-05-01 11:19 41.34405 -81.09682 16089 ft 285 kts 270°
2026-05-01 11:19 41.34417 -81.12322 15707 ft 285 kts 270°
2026-05-01 11:19 41.34427 -81.14946 15323 ft 284 kts 270°
2026-05-01 11:20 41.34439 -81.17570 14941 ft 283 kts 270°
2026-05-01 11:20 41.34450 -81.20182 14560 ft 282 kts 270°
2026-05-01 11:20 41.34459 -81.22791 14176 ft 281 kts 270°
2026-05-01 11:20 41.34467 -81.25389 13791 ft 280 kts 270°
2026-05-01 11:21 41.34476 -81.27984 13377 ft 279 kts 270°
2026-05-01 11:21 41.34484 -81.30565 12977 ft 278 kts 269°
2026-05-01 11:21 41.34489 -81.33129 12592 ft 276 kts 269°
2026-05-01 11:21 41.34494 -81.35679 12197 ft 275 kts 269°
2026-05-01 11:22 41.34498 -81.37363 11942 ft 273 kts 269°
2026-05-01 11:22 41.34504 -81.39889 11549 ft 272 kts 269°
2026-05-01 11:22 41.34509 -81.42395 11150 ft 270 kts 269°
2026-05-01 11:22 41.34514 -81.44885 10754 ft 268 kts 269°
2026-05-01 11:23 41.34518 -81.47356 10466 ft 262 kts 269°
2026-05-01 11:23 41.34522 -81.49733 10272 ft 253 kts 269°
2026-05-01 11:23 41.34524 -81.52049 10014 ft 248 kts 269°
2026-05-01 11:23 41.34525 -81.54347 9854 ft 247 kts 268°
2026-05-01 11:24 41.34522 -81.56638 9709 ft 247 kts 268°
2026-05-01 11:24 41.34521 -81.58927 9571 ft 247 kts 268°
2026-05-01 11:24 41.34519 -81.63515 8776 ft 250 kts 268°
2026-05-01 11:25 41.34516 -81.65818 8353 ft 249 kts 267°
2026-05-01 11:25 41.34509 -81.70452 7389 ft 250 kts 266°
2026-05-01 11:25 41.34508 -81.72717 7218 ft 238 kts 266°
2026-05-01 11:26 41.34510 -81.74869 7104 ft 226 kts 266°
2026-05-01 11:26 41.34307 -81.78810 6675 ft 208 kts 245°
2026-05-01 11:26 41.33413 -81.80335 6106 ft 216 kts 218°
2026-05-01 11:27 41.32136 -81.81493 5481 ft 227 kts 222°
2026-05-01 11:27 41.31100 -81.83079 5183 ft 224 kts 231°
2026-05-01 11:27 41.30172 -81.84690 5049 ft 215 kts 231°
2026-05-01 11:27 41.29277 -81.86267 4742 ft 214 kts 231°
2026-05-01 11:28 41.28385 -81.87855 4397 ft 214 kts 232°
2026-05-01 11:28 41.27495 -81.89438 4051 ft 212 kts 232°
2026-05-01 11:28 41.26630 -81.90971 3713 ft 207 kts 232°
2026-05-01 11:29 41.25100 -81.94099 3027 ft 201 kts 255°
2026-05-01 11:29 41.25108 -81.95940 2703 ft 204 kts 286°
2026-05-01 11:29 41.27004 -81.98291 2493 ft 179 kts 347°
2026-05-01 11:30 41.28183 -81.98590 2506 ft 172 kts 351°
2026-05-01 11:30 41.29377 -81.98853 2511 ft 174 kts 352°
2026-05-01 11:30 41.30577 -81.99061 2501 ft 173 kts
2026-05-01 11:30 41.31736 -81.98659 2490 ft 172 kts 24°
2026-05-01 11:31 41.32779 -81.97894 2488 ft 171 kts 37°
2026-05-01 11:31 41.33706 -81.96900 2487 ft 171 kts 41°
2026-05-01 11:31 41.34534 -81.95839 2425 ft 159 kts 48°
2026-05-01 11:31 41.35231 -81.94805 2275 ft 140 kts 50°
2026-05-01 11:32 41.35846 -81.93859 2108 ft 131 kts 50°
2026-05-01 11:32 41.36432 -81.92947 1940 ft 128 kts 49°
2026-05-01 11:32 41.37002 -81.92054 1758 ft 126 kts 49°
2026-05-01 11:32 41.37566 -81.91169 1569 ft 125 kts 49°
2026-05-01 11:33 41.38125 -81.90289 1387 ft 125 kts 49°
2026-05-01 11:33 41.38690 -81.89404 1214 ft 125 kts 48°
2026-05-01 11:33 41.39245 -81.88515 1054 ft 125 kts 49°
2026-05-01 11:33 41.39807 -81.87630 867 ft 123 kts 49°
2026-05-01 11:34 41.40342 -81.86788 780 ft 107 kts 49°
2026-05-01 11:34 41.40716 -81.86193 786 ft 59 kts 50°
2026-05-01 11:34 41.40912 -81.85886 787 ft 39 kts 50°
2026-05-01 11:34 41.41068 -81.85615 787 ft 35 kts 70°
2026-05-01 11:35 41.41125 -81.85328 790 ft 31 kts 54°
2026-05-01 11:35 41.41249 -81.85129 796 ft 26 kts 50°
2026-05-01 11:35 41.41358 -81.84956 798 ft 23 kts 50°
2026-05-01 11:35 41.41452 -81.84810 795 ft 12 kts 51°
2026-05-01 11:36 41.41450 -81.84713 793 ft 12 kts 137°
2026-05-01 11:36 41.41386 -81.84644 793 ft 11 kts 141°
2026-05-01 11:36 41.41335 -81.84588 795 ft 8 kts 141°
2026-05-01 11:36 41.41290 -81.84540 795 ft 10 kts 141°
2026-05-01 11:37 41.41233 -81.84480 796 ft 11 kts 141°
2026-05-01 11:37 41.41243 -81.84434 796 ft 6 kts 42°
2026-05-01 11:37 41.41272 -81.84386 797 ft 7 kts 80°
2026-05-01 11:37 41.41245 -81.84333 798 ft 7 kts 130°
2026-05-01 11:38 41.41207 -81.84284 799 ft 8 kts 138°
2026-05-01 11:38 41.41175 -81.84228 800 ft 0 kts 118°